Find Starlink 5901

NORAD ID: 55999 Int'l Des: 2023-042 Owner: SPXS Country: US Constellation: starlink operational
LEOCIRCULAR

当前视图

正在加载3D地球...

About Starlink 5901

Starlink 5901 (NORAD 55999) is a starlink constellation satellite (v1.5) launched Mar 24, 2023 by SPXS of US. It operates in LEO, CIRCULAR orbit with a mass of 305.00 kg.

即将过境

Passes for default location (London). Set your location on the main map for personalized predictions.

高度历史

Loading altitude history...

两行轨道根数

1 55999U 23042P 26263.38448925 -.00000144 00000-0 43097-5 0 9998
2 55999 43.0034 40.2260 0001836 257.9122 102.1524 15.27580247192641
Epoch: Sep 20, 2026 • Age: 27 hours

当前状态

高度 484.6 km
远地点 / 近地点 N/A
速度 7.63 km/s
星下点 30.85°N, 13.32°W
发射日期 Mar 24, 2023
运行时间 3.4 years
类型 internet

技术详情

分类 Payload
质量 305.00 kg
干质量 290.00 kg
长度 0.20 m
跨度 9.00 m
形状 ? Box + pan
制造商 SPXS
平台类型 Starlink
阶段状态 In Orbit
所有者/国家 SPXS/US

Most Searched